Terug naar catalogus

FENGYUN 1C DEB

ActiefPO
NORAD 29758·DEBRIS·🇨🇳 China

Gelanceerd May 10, 1999 vanaf Taiyuan Satellite Launch Center

Loading…

Volgende Passages (komende 24 uur)

TLE

VersSource: Space-Track

Epoch: Sep 14, 2026, 07:23 UTC

1 29758U 99025AY  26257.30824472  .00004379  00000-0  12707-2 0  9990
2 29758  98.8670  28.9325 0020552 208.4108 181.5686 14.44781153 16478

Volg FENGYUN 1C DEB in realtime met AllMySat

Download on the App Store